This is the latest recevied weather packets stored in our database for station/object IR1BY-3. If no packets are shown the sender has not sent any weather packets the latest 10 day(s).
| Time | Temp. | Humidity | Pressure | Rain* | Wind** | Luminosity | Snow |
|---|---|---|---|---|---|---|---|
| 1777545673 | 15° C | 99% | 1020.5 hPa | - | - | - | - |
| 1777543873 | 12.22° C | 99% | 1020.3 hPa | - | - | - | - |
| 1777542072 | 10.56° C | 99% | 1020.2 hPa | - | - | - | - |
| 1777540272 | 10° C | 99% | 1019.7 hPa | - | - | - | - |
| 1777538472 | 10° C | 99% | 1019.9 hPa | - | - | - | - |
| 1777536672 | 11.67° C | 99% | 1019 hPa | - | - | - | - |
| 1777534871 | 10.56° C | 99% | 1018.5 hPa | - | - | - | - |
| 1777533071 | 10.56° C | 99% | 1018.4 hPa | - | - | - | - |
| 1777531270 | 10.56° C | 99% | 1018 hPa | - | - | - | - |
| 1777529470 | 10° C | 99% | 1018.3 hPa | - | - | - | - |
| 1777527670 | 10.56° C | 99% | 1018 hPa | - | - | - | - |
| 1777525870 | 10.56° C | 99% | 1017.3 hPa | - | - | - | - |
| 1777524069 | 10.56° C | 99% | 1017.3 hPa | - | - | - | - |
| 1777522269 | 10.56° C | 99% | 1017.1 hPa | - | - | - | - |
| 1777520469 | 11.11° C | 99% | 1016.8 hPa | - | - | - | - |
| 1777518668 | 10.56° C | 99% | 1017.1 hPa | - | - | - | - |
| 1777516868 | 10.56° C | 99% | 1017.2 hPa | - | - | - | - |
| 1777515068 | 10.56° C | 99% | 1016.9 hPa | - | - | - | - |
| 1777513267 | 11.11° C | 99% | 1016.8 hPa | - | - | - | - |
| 1777511467 | 12.22° C | 99% | 1016.9 hPa | - | - | - | - |
| 1777509667 | 12.78° C | 99% | 1016.9 hPa | - | - | - | - |
| 1777507866 | 12.78° C | 99% | 1017 hPa | - | - | - | - |
| 1777506066 | 12.78° C | 99% | 1016.8 hPa | - | - | - | - |
| 1777504266 | 12.78° C | 99% | 1016.9 hPa | - | - | - | - |
| 1777502465 | 12.78° C | 99% | 1016.9 hPa | - | - | - | - |
* Rain since midnight (hover to see other rain measurements)
** Current wind speed in m/s (hover to see current wind gust speed)